Location: Tel Aviv
(32.0670°N, 34.7670°E)
Time: 05:06:29
(UTC+03:00)

Vanguard 2 - Pass Details

Date: 27 January 2022
Orbit: 552 x 2935 km, 32.9° (Epoch: 25 May)

Event Time Altitude Azimuth Distance (km) Brightness Sun altitude
Rises 01:45:35 0° 285° (WNW) 5,885 - -61.4°
Reaches altitude 10° 01:49:17 10° 280° (W) 5,130 - -60.7°
Maximum altitude 02:04:07 47° 213° (SSW) 3,546 - -57.7°
Exits shadow 02:13:52 27° 160° (SSE) 4,434 11.2 -55.7°
Drops below altitude 10° 02:20:21 10° 147° (SSE) 5,551 12.0 -54.4°
Sets 02:24:38 0° 141° (SE) 6,380 12.4 -53.5°
